Location: Aldenham
(51.6667°N, 0.3500°W)
Time: 04:05:49
(UTC+00:00)

Altair - Pass Details

Date: 16 February 2026
Orbit: 1502 x 1682 km, 47.2° (Epoch: 7 March)

Event Time Altitude Azimuth Distance (km) Brightness Sun altitude
Rises 05:50:04 0° 234° (SW) 4,636 - -13.6°
Exits shadow 05:51:20 - 232° (SW) 4,230 9.4 -13.4°
Reaches altitude 10° 05:53:08 10° 229° (SW) 3,667 9.1 -13.1°
Maximum altitude 06:01:59 53° 156° (SSE) 1,836 8.1 -11.7°
Drops below altitude 10° 06:11:08 10° 84° (E) 3,789 11.0 -10.3°
Sets 06:14:22 0° 80° (E) 4,801 11.7 -9.8°
